DAMPE

Last updated on Fri Sep 11 2026 00:03:32 GMT+0000 (Coordinated Universal Time)

1 41173U 15078A 26253.59903676 .00001233 00000+0 43748-4 0 9998 2 41173 97.4596 259.5139 0013116 126.7916 233.4531 15.30969484597614
UTC large
Height (km)
Speed (km/s)
/
Latitude / Longitude
Inclination (degrees)
Orbital Period (minutes)
Azimuth
Elevation
Range (km)
Doppler Factor

Next 0 passes for location: London (51.5072 / 0.1276)

No passes found over London.
DAMPE